Kezdőlap
METAR-TAF:

METAR-TAF

Repülőterek :

Marshfield Municipal Airport

Marshfield, Wisconsin, Amerikai Egyesült Államok

földrajzi szélesség: 44-38-17N, földrajzi hosszúság: 090-11-15W, magasság: 389 m

Jelenlegi meteorológiai megfigyelések

A jelentés 1 órával és 9 perccel ezelõtt készült, 12:54 UTC
Nyugati szél 9 kt
Hőmérséklet -4°C
Páratartalom 68%
Légköri nyomás 1022 hPa
Látótávolság: 16.1 km
Derült ég

METAR: KMFI 041254Z AUTO 28009KT 10SM CLR M04/M09 A3019 RMK AO2 SLP242 T10441094

Idő: 08:03 (14:03 UTC)


TAF: hiányzik

Meteorológiai megfigyelések és előrejelzések több, mint 4000 repülőtéren (METAR és TAF jelentéseket).

A térképen piros és sárga pontok jelzik az elérhető meteorológiai állomásokat.

Mozgassa az egeret a pont fölött, hogy megjelenjen az állomás neve.

Azután kattintson az időjárási megfigyelések és előrejelzések megtekintéséhez.

A térkép megváltoztatása: kattintson a fekete keresztel jelölt zöld gombra ráközelítéshez, a vonallal jelölt zöld gombra távolításhoz, vagy a zöld nyilakra a szomszédos térképek eléréséhez.


METAR-TAF: